Weather History for KORE - May, 2013

Change the Weather History Date:

Tuesday, May 28, 2013

  Actual Average Record
Temperature  
Mean Temperature 55 °F -  
Max Temperature 73 °F 67 °F 84 °F (1998)
Min Temperature 37 °F 44 °F 33 °F (1997)
Degree Days  
Heating Degree Days 10    
Growing Degree Days 5 (Base 50)    
Moisture  
Dew Point 41 °F    
Average Humidity 61    
Maximum Humidity 97    
Minimum Humidity 22    
Precipitation  
Precipitation 0.00 in - - ()
Sea Level Pressure  
Sea Level Pressure 30.20 in    
Wind  
Wind Speed 3 mph (South)    
Max Wind Speed 12 mph    
Max Gust Speed 16 mph    
Visibility 9 miles    
Events      
Averages and records for this station are not official NWS values.
T = Trace of Precipitation, MM = Missing Value Source: NWS Daily Summary

Daily Weather History Graph

Daily Weather History Graph

Search for Another Location

Airport or City:

Trip Planner

Search our weather history database for the weather conditions in past years. The results will help you decide how hot, cold, wet, or windy it might be!

Date:

Astronomy

May. 28, 2013 Rise Set
Actual Time 5:16 AM EDT 8:17 PM EDT
Civil Twilight 4:42 AM EDT 8:50 PM EDT
Nautical Twilight 3:59 AM EDT 9:34 PM EDT
Astronomical Twilight 3:08 AM EDT 10:25 PM EDT
Moon 11:35 PM EDT (5/28) 9:03 AM EDT (5/28)
Length of Visible Light 16h 08m
Length of Day
15h 00m
Waning Gibbous, 83% of the Moon is Illuminated
May 28
Waning Gibbous
May 31
Last Quarter
Jun 8
New
Jun 16
First Quarter
Jun 23
Full

Hourly Weather History & Observations

Time (EDT) Temp. Dew Point Humidity Pressure Visibility Wind Dir Wind Speed Gust Speed Precip Events Conditions
12:52 AM 43.0 °F 41.0 °F 93% 30.20 in 10.0 mi Calm Calm - N/A   Clear
1:52 AM 41.0 °F 39.9 °F 96% 30.21 in 10.0 mi Calm Calm - N/A   Clear
2:52 AM 39.9 °F 39.0 °F 97% 30.22 in 10.0 mi Calm Calm - N/A   Clear
3:52 AM 39.0 °F 37.0 °F 93% 30.22 in 5.0 mi Calm Calm - N/A   Clear
4:40 AM 37.4 °F 35.6 °F 93% 30.21 in 2.0 mi Calm Calm - N/A   Clear
4:52 AM 37.9 °F 36.0 °F 93% 30.22 in 7.0 mi Calm Calm - N/A   Clear
5:52 AM 37.9 °F 37.0 °F 97% 30.24 in 10.0 mi Calm Calm - N/A   Clear
6:52 AM 43.0 °F 41.0 °F 93% 30.25 in 10.0 mi Calm Calm - N/A   Clear
7:52 AM 50.0 °F 42.1 °F 74% 30.25 in 10.0 mi Calm Calm - N/A   Clear
8:52 AM 57.0 °F 43.0 °F 59% 30.25 in 10.0 mi Calm Calm - N/A   Clear
9:52 AM 64.0 °F 37.9 °F 38% 30.22 in 10.0 mi Calm Calm - N/A   Clear
10:52 AM 66.0 °F 37.9 °F 36% 30.23 in 10.0 mi Variable 4.6 mph - N/A   Clear
11:52 AM 69.1 °F 34.0 °F 27% 30.23 in 10.0 mi SSW 9.2 mph - N/A   Clear
12:52 PM 72.0 °F 30.9 °F 22% 30.21 in 10.0 mi SSW 6.9 mph - N/A   Clear
1:52 PM 73.9 °F 35.1 °F 24% 30.19 in 10.0 mi SSE 11.5 mph 16.1 mph N/A   Clear
2:52 PM 72.0 °F 35.1 °F 26% 30.18 in 10.0 mi South 8.1 mph - N/A   Clear
3:52 PM 72.0 °F 37.0 °F 28% 30.18 in 10.0 mi South 9.2 mph - N/A   Clear
4:52 PM 72.0 °F 39.0 °F 30% 30.17 in 10.0 mi South 6.9 mph - N/A   Clear
5:52 PM 71.1 °F 42.1 °F 35% 30.15 in 10.0 mi South 6.9 mph - N/A   Clear
6:52 PM 69.1 °F 44.1 °F 40% 30.15 in 10.0 mi South 11.5 mph - N/A   Clear
7:52 PM 64.9 °F 46.0 °F 50% 30.16 in 10.0 mi SSW 6.9 mph - N/A   Clear
8:52 PM 62.1 °F 46.9 °F 58% 30.16 in 10.0 mi South 5.8 mph - N/A   Overcast
9:52 PM 61.0 °F 48.9 °F 64% 30.17 in 10.0 mi SSE 4.6 mph - N/A   Overcast
10:26 PM 60.8 °F 50.0 °F 68% 30.17 in 10.0 mi South 5.8 mph - N/A   Overcast
10:52 PM 61.0 °F 51.1 °F 70% 30.17 in 10.0 mi South 3.5 mph - N/A   Overcast
11:52 PM 60.1 °F 53.1 °F 78% 30.17 in 10.0 mi Variable 5.8 mph - N/A   Overcast